Airfield :
LOGIN :

Register | Disclaimer

   EN    FR    IT 

 










Legend :    VFR   Marginal VFR   IFR   Intensive IFR   Very Intensive IFR
Visi :
Ceiling :
>= 8 km
>= 3000ft
5 to 8 km
1000 to 3000 ft
1500m to 5 km
500 to 1000 ft
800 to 1500m
200 to 500 ft
< 800m
< 200 ft
Symbols :   Thunderstorms  Fog  Heavy snow  Heavy precipitations  Wind > 20 kt
SIGMETs :     Misc.  Thunderstorms  Icing  Turbulence  Mountain Waves  Volcanic Ashes







- Airport Elevation : 13 ft
- IATA code : CAG


LIEE - Cagliari Elmas

CURRENT METAR :
  • 212350Z 32005KT CAVOK 17/16 Q1021

EXPIRED METARs :
  • 212320Z 30005KT 9999 FEW015 18/17 Q1021
  • 212250Z 32006KT 9999 FEW015 19/17 Q1022
  • 212220Z 32004KT 9999 FEW015 17/15 Q1022
  • 212150Z VRB01KT 9999 FEW015 18/16 Q1021

TAF TAF LIEE
Valid from the 22 at 00:00 until the 23 at 00:00 UTC


212300Z 2200/2224 32008KT 9999 SCT030
TEMPO 2206/2212 4000 SHRA
BECMG 2212/2214 33018G28KT
No reported NOTAMs for that airfield.



MET'MAP, your aeronautical weather chart ! - Copyright ORBIFLY December 2007 - Disclaimer

ORBIFLY MET'MAP TEAM :

Programming & Development : Alexandra Zaïnal
Concept & Development : Baudouin d'Aumeries
Co-Development & Prog : Marc-Olivier Méhu
Technical & hardware support : Manuel Goepfert

Contact : metmap@orbifly.com




SOURCES & CREDITS :

   NOAA